Location: Les Jeannots
(43.2262°N, 5.5774°E)
Time: 01:40:06
(UTC+00:00)

USA 81 - Pass Details

Date: 05 July 2020
Orbit: 786 x 788 km, 85.0° (Epoch: 17 July)

Event Time Altitude Azimuth Distance (km) Brightness Sun altitude
Exits shadow 21:19:52 20° 183° (S) 1,768 5.4 -16.4°
Maximum altitude 21:23:38 89° 92° (E) 793 4.0 -16.8°
Drops below altitude 10° 21:28:56 10° 5° (N) 2,356 7.3 -17.3°
Sets 21:31:18 0° 6° (N) 3,289 8.2 -17.5°
